Preview of NWS' New Version of Forecast
This preview is not operational and should not be used for support decisions.

Regional Weather Roundup (RWR)

Issued by National Weather Service (NWS)

                            
000
ASUS44 KJAN 171310
RWRMS 

MISSISSIPPI HOURLY WEATHER ROUNDUP
NATIONAL WEATHER SERVICE JACKSON MS
800 AM CDT WED APR 17 2019

NOTE: "FAIR: INDICATES FEW OR NO CLOUDS BELOW 12,000 FEET WITH NO
SIGNIFICANT WEATHER AND/OR OBSTRUCTIONS TO VISIBILITY.

MSZ001>002-007>008-010>013-018>021-025>028-034>036-171400-
NORTHWEST MISSISSIPPI
  
CITY           SKY/WX    TMP DP  RH WIND       PRES   REMARKS
BATESVILLE     FAIR      61  57  88 CALM      30.06S                  
CLARKSDALE     PTSUNNY   63  63 100 SE8       30.05R                  
CLEVELAND      CLOUDY    62  59  89 SE8       30.05R                  
GREENWOOD      FAIR      62  57  83 S7        30.07R                  
GREENVILLE     CLOUDY    62  58  86 SE9       30.04R                  
OLIVE BRANCH   CLOUDY    59  59 100 S6        30.04F                  
OXFORD         FAIR      61  54  77 S6        30.09S                  
TUNICA           N/A     61  55  82 S6        30.05R                  
WINONA         FAIR      58  57  96 CALM      30.08R                  
$$

MSZ003>006-009-014>017-022>024-029>033-037>039-171400-
NORTHEAST MISSISSIPPI
  
CITY           SKY/WX    TMP DP  RH WIND       PRES   REMARKS
ABERDEEN       FAIR      57  57 100 CALM      30.12R                  
COLUMBUS AFB   FAIR      58  55  88 SE6       30.10R                  
CORINTH        FAIR      61  54  77 S6        30.09R                  
GOLDN TRIANGLE FAIR      60  56  86 SE8       30.11R                  
STARKVILLE     FAIR      59  55  88 CALM      30.11R                  
TUPELO         FAIR      60  54  80 S3        30.10R                  
$$

MSZ040-058-171400-
CENTRAL MISSISSIPPI
  
CITY           SKY/WX    TMP DP  RH WIND       PRES   REMARKS
JACKSON INTL   PTSUNNY   61  57  87 S8        30.07R                  
JACKSON HAWKNS FAIR      61  59  93 SE7       30.06R                  
MADISON        FAIR      59  59 100 CALM      30.06R                  
MERIDIAN KEY   FAIR      59  56  89 CALM      30.10R                  
MERIDIAN NAS   CLOUDY    58  56  93 E3        30.11R                  
RAYMOND        FAIR      61  61 100 CALM      30.06R                  
VICKSBURG VKS  SUNNY     63  61  94 S5        30.05R                  
$$

MSZ059>079-171400-
SOUTH MISSISSIPPI
  
CITY           SKY/WX    TMP DP  RH WIND       PRES   REMARKS
HATTIESBURG    FAIR      56  55  97 SE3       30.09R                  
LAUREL         SUNNY     59  57  93 E3        30.09R                  
MCCOMB         FAIR      62  59  90 S5        30.06R                  
NATCHEZ        FAIR      63  60  90 S10       30.03S                  
PINE BELT      FAIR      58  57  97 CALM      30.10R                  
$$

MSZ080>082-171400-
COASTAL MISSISSIPPI
  
CITY           SKY/WX    TMP DP  RH WIND       PRES   REMARKS
BAY ST LOUIS   MOSUNNY   68  59  73 CALM      30.07R                  
BILOXI         LGT RAIN  72  63  73 S12       30.07S                  
PASCAGOULA     FAIR      62  58  86 CALM      30.08R                  
GULFPORT       FAIR      70  61  73 S9        30.07R                  
$$

LAZ007>009-015>016-023>026-171400-
NORTHEAST LOUISIANA
  
CITY           SKY/WX    TMP DP  RH WIND       PRES   REMARKS
BASTROP        CLOUDY    63  62  98 CALM      30.03S                  
TALLULAH/VBURG FAIR      62  59  90 S7        30.04R                  
VIDALIA        FAIR      63  60  91 SE7       30.02R                  
$$